Location: Lafig�re
(44.4503°N, 4.0357°E)
Time: 15:44:13
(UTC+00:00)

Vanguard 2 Rocket - Pass Details

Date: 28 January 2021
Orbit: 554 x 3325 km, 32.9° (Epoch: 06 March)

Event Time Altitude Azimuth Distance (km) Brightness Sun altitude
Rises 13:45:08 0° 237° (WSW) 7,168 12.5 22.8°
Reaches altitude 10° 13:50:38 10° 232° (SW) 5,925 12.5 22.3°
Maximum altitude 14:06:08 43° 169° (S) 2,927 10.4 20.9°
Drops below altitude 10° 14:15:51 10° 103° (ESE) 3,788 9.9 19.9°
Sets 14:18:32 0° 96° (E) 4,457 10.2 19.7°
